Погода в Черноречье

Россия / Оренбургская область     51°47′26″N   54°48′13″E
темп.,
°C
ветер,
м/с
пор.,
м/с
влажн.,
%
обл.,
%
осадки,
мм/ч
давл.,
гПа
погр.,
м
17 апреля, сб
сб1723:00+13всв455058 0.0 101865
02:00+11в355792 0.0 101874
05:00+10всв496384 0.0 1019152
08:00+10всв6116829 0.0 1019326
11:00+16в78495 0.0 1019628
14:00+20в673749 0.0 10181248
17:00+21в673370 0.0 10171846
20:00+17всв5104815 0.0 1017216
18 апреля, вс
вс1823:00+13всв48645 0.1 1017131
02:00+11всв33710 0.0 101744
05:00+10св23760 0.0 101734
08:00+11ссв36770 0.0 1017170
11:00+16св44540 0.0 1017646
14:00+19св54424 0.0 10161360
17:00+19ссв66332 0.0 10161407
20:00+14ссв6103933 0.0 1017372
19 апреля, пн
пн1923:00+11ссв612500 0.0 1018326
02:00+9св611685 0.0 1018313
05:00+7в8137226 0.0 1021593
08:00+5в9136934 0.0 1023695
11:00+7в10125482 0.0 10241051
14:00+6в101154100 0.0 10261089
17:00+6в91153100 0.0 10261102
20:00+6в81153100 0.0 10271077
20 апреля, вт
вт2023:00+5в91244100 0.0 1029912
02:00+3в9134378 0.0 1030799
05:000в814485 0.0 1032670
08:00+1в813450 0.0 1034815
11:00+4вюв911300 0.0 10341128
14:00+8вюв810260 0.0 10341383
17:00+9вюв79250 0.0 10331457
20:00+7вюв611342 0.0 1033486
21 апреля, ср
ср2123:00+4вюв5124474 0.0 1035327
02:00+2вюв385354 0.0 1035168
05:00+1вюв411545 0.0 1035287
08:00+2юв511475 0.0 1036452
11:00+7юв6831100 0.0 1036914
14:00+11юв782727 0.0 10341258
17:00+13ююв78265 0.0 10331517
20:00+10ююв36415 0.0 1033108